This demonstration page uses our WeatherBlox Daily Observations layout. Learn more.

Left ArrowRight Arrow

38.83388, -104.82136

Hourly Observations for April 21, 2022

Temp ( °F °C ) Dew Point ( °F °C ) Humidity (%) Winds ( mph kmh ) Pressure ( in mb ) Visibility ( mi km ) Precip ( " mm )
12:58 am 00:58 Clear 51 10.7 28 -2.4 40 40 SE 12 19 29.72 1007 10 16 0.00 0.00
1:58 am 01:58 Clear 50 9.9 28 -2.4 42 42 SE 10 17 29.71 1006 10 16 0.00 0.00
2:58 am 02:58 undefined N/A N/A N/A undefined N/A N/A N/A 0.00 0.00
3:58 am 03:58 Clear 48 8.9 29 -1.8 47 47 SSE 7 11 29.70 1006 10 16 0.00 0.00
4:58 am 04:58 Clear 45 7.2 28 -2 52 52 Calm 29.68 1005 10 16 0.00 0.00
5:58 am 05:58 Clear 43 6.3 28 -2.1 55 55 Calm 29.69 1005 10 16 0.00 0.00
6:58 am 06:58 Sunny 44 6.7 30 -1.2 57 57 E 6 9 29.74 1007 10 16 0.00 0.00
7:58 am 07:58 Sunny 47 8.6 33 0.3 56 56 ENE 10 17 29.77 1008 10 16 0.00 0.00
8:58 am 08:58 Sunny 49 9.4 34 1.3 57 57 ENE 5 7 29.79 1009 10 16 0.00 0.00
9:58 am 09:58 Sunny 53 11.7 36 2.2 52 52 ENE 13 20 29.77 1008 10 16 0.00 0.00
10:31 am 10:31 Sunny 54 12 37 3 54 54 ENE 12 19 29.78 1009 10 16 0.00 0.00
10:58 am 10:58 Mostly Sunny 56 13.2 38 3.3 51 51 E 13 20 29.78 1008 10 16 0.00 0.00
11:58 am 11:58 Sunny 58 14.6 37 2.8 45 45 E 10 17 29.80 1009 10 16 0.00 0.00
12:58 pm 12:58 Sunny 61 15.9 37 3 42 42 E 15 24 29.79 1009 10 16 0.00 0.00
1:40 pm 13:40 Sunny 61 16 37 3 42 42 ESE 17 28 29.78 1008 10 16 0.00 0.00
1:58 pm 13:58 Sunny 62 16.5 37 2.5 39 39 E 15 24 29.78 1008 10 16 0.00 0.00
2:58 pm 14:58 Sunny 64 17.9 32 0.1 30 30 E 22 35 29.76 1008 10 16 0.00 0.00
3:58 pm 15:58 Sunny 66 18.7 31 -0.7 27 27 E 21 33 29.73 1007 10 16 0.00 0.00
4:58 pm 16:58 Sunny 65 18.4 30 -0.9 27 27 E 17 28 29.76 1008 10 16 0.00 0.00
5:58 pm 17:58 Sunny 64 17.9 30 -0.9 28 28 E 14 22 29.72 1006 10 16 0.00 0.00
6:58 pm 18:58 Sunny 65 18.2 29 -1.6 26 26 SE 13 20 29.72 1006 10 16 0.00 0.00
7:58 pm 19:58 Clear 64 17.9 31 -0.4 29 29 SE 6 9 29.70 1006 10 16 0.00 0.00
8:58 pm 20:58 Clear 63 17.4 35 1.4 34 34 SSE 8 13 29.66 1005 10 16 0.00 0.00
9:58 pm 21:58 Clear 64 17.6 33 0.3 31 31 Calm 29.61 1003 10 16 0.00 0.00
10:58 pm 22:58 Clear 60 15.5 29 -1.6 31 31 ENE 3 6 29.59 1002 10 16 0.00 0.00
11:58 pm 23:58 Clear 61 15.9 20 -6.4 21 21 E 6 9 29.59 1002 10 16 0.00 0.00

Powered by AerisWeather